Flag for U.S.A. Weather past 2 weeks in San Francisco, California, U.S.A.

Now
64 °F

Passing clouds.


Feels Like: 64 °F
Forecast: 58 / 70 °F
Wind: 17 mph from Northwest

Location: San Francisco International Airport

Current Time: Jul 29, 2015 at 9:17:28 PM

Latest Report: Jul 29, 2015 at 7:56 PM


Visibility: 10 mi

Pressure: 29.90 "Hg

Humidity: 78%

Dew point: 57 °F

Location of San FranciscoLocation

Historic Weather in San Francisco — Graph

°F

San Francisco temperature yesterday

Maximum temperature yesterday: 87 °F (at 1:56 PM)
Minimum temperature yesterday: 58 °F (at 3:56 AM)
Average temperature yesterday: 70 °F

Past Weeks' High & Low Weather Summary

 TemperatureHumidityPressure
High87 °F (Jul 19, 2:56 PM)93% (Jul 29, 5:56 AM)30.13 "Hg (Jul 29, 5:56 AM)
Low57 °F (Jul 27, 4:56 AM)30% (Jul 28, 1:56 PM)29.78 "Hg (Jul 17, 5:56 PM)
Average66 °F71%29.94 "Hg
* Reported Jul 14 7:56 PM — Jul 29 7:56 PM, San Francisco, Weather by CustomWeather, © 2015

Note: Actual official high and low records may vary slightly from our data, if they occured in-between our weather recording intervals... More about our weather records

Advertising

San Francisco weather history for previous 24 hours

 ConditionsComfort  
Time TempWeatherWind HumidityBarometerVisibility
7:56 PM
Wed, Jul 29
64 °FPassing clouds.17 mph78%29.90 "Hg10 mi
6:56 PM67 °FPassing clouds.21 mph71%29.89 "Hg10 mi
5:56 PM70 °FPassing clouds.23 mph64%29.88 "Hg10 mi
4:56 PM74 °FPassing clouds.20 mph53%29.88 "Hg10 mi
3:56 PM77 °FPassing clouds.20 mph47%29.88 "Hg10 mi
2:56 PM78 °FPassing clouds.18 mph46%29.89 "Hg10 mi
1:56 PM77 °FPassing clouds.18 mph48%29.90 "Hg10 mi
12:56 PM77 °FPassing clouds.18 mph48%29.90 "Hg10 mi
11:56 AM76 °FPassing clouds.6 mph56%29.92 "Hg10 mi
10:56 AM71 °FPassing clouds.5 mph71%29.93 "Hg10 mi
9:56 AM68 °FPassing clouds.7 mph76%29.92 "Hg10 mi
8:56 AM66 °FPassing clouds.6 mph73%29.91 "Hg10 mi
7:56 AM61 °FPassing clouds.7 mph83%29.91 "Hg10 mi
6:56 AM58 °FPassing clouds.10 mph90%29.90 "Hg10 mi
5:56 AM58 °FPassing clouds.9 mph93%29.88 "Hg10 mi
4:56 AM60 °FPassing clouds.9 mph90%29.87 "Hg10 mi
3:56 AM60 °FPassing clouds.9 mph90%29.87 "Hg10 mi
2:56 AM62 °FClear.7 mph83%29.86 "Hg10 mi
1:56 AM63 °FClear.7 mph81%29.87 "Hg10 mi
12:56 AM64 °FClear.7 mph78%29.88 "Hg9 mi
11:56 PM
Tue, Jul 28
66 °FClear.6 mph70%29.88 "Hg10 mi
10:56 PM69 °FPassing clouds.5 mph59%29.87 "Hg10 mi
9:56 PM71 °FPassing clouds.8 mph51%29.87 "Hg10 mi
Weather by CustomWeather, © 2015

See weather overviewHow to use our weather pages